Waarnemingen

Advertentie
Mijn weer
San Clemente, Spanje (8256): temperatuur & dauwpunt: 12.10.2019 21:00:00 - 18.10.2019 21:00:00 (CEST)San Clemente, Spanje (8256): windsnelheid & windstoten: 12.10.2019 21:00:00 - 18.10.2019 21:00:00 (CEST)San Clemente, Spanje (8256): windrichting: 12.10.2019 21:00:00 - 18.10.2019 21:00:00 (CEST)San Clemente, Spanje (8256): luchtdruk: 12.10.2019 21:00:00 - 18.10.2019 21:00:00 (CEST)San Clemente, Spanje (8256): zicht: 12.10.2019 21:00:00 - 18.10.2019 21:00:00 (CEST)San Clemente, Spanje (8256): Zonneschijnduur: 12.10.2019 21:00:00 - 18.10.2019 21:00:00 (CEST)San Clemente, Spanje (8256): neerslag: 12.10.2019 21:00:00 - 18.10.2019 21:00:00 (CEST)
Datum & Tijd tt [°C] td [°C] ff [km/u] ff [kn] fx [km/u] fx [kn] dd ppp [hPa] vv [km] sd [min] rr [mm]
18.10.2019 21:00:00 - - - - - - - - - - -
18.10.2019 20:00:00 17,9 9,6 8 5 26 14 NNW 1013,5 18 16 -
18.10.2019 19:00:00 20,3 10,4 17 9 31 17 NNW 1013,1 20 19 0,0
18.10.2019 18:00:00 20,9 11,0 21 12 35 19 N 1013,3 19 15 0,0
18.10.2019 17:00:00 21,4 11,4 18 10 35 19 N 1013,6 20 19 0,0
18.10.2019 16:00:00 21,1 11,4 24 13 39 21 NNW 1014,0 15 38 0,0
18.10.2019 15:00:00 20,5 12,2 25 13 36 19 N 1014,7 19 3 0,0
18.10.2019 14:00:00 19,7 12,2 21 11 34 19 NNW 1015,9 20 5 -
18.10.2019 13:00:00 19,4 12,4 23 12 31 17 NNW 1016,6 16 16 0,0
18.10.2019 12:00:00 18,4 12,8 17 9 27 15 NW 1017,2 20 30 0,0
18.10.2019 11:00:00 16,4 11,3 11 6 19 11 NNW 1018,1 16 27 0,0
18.10.2019 10:00:00 14,7 8,0 4 2 6 3 WZW 1018,5 14 16 0,0
18.10.2019 09:00:00 13,2 7,6 3 2 8 4 W 1018,8 18 0 0,0
18.10.2019 08:00:00 12,9 8,0 5 3 8 4 ZW 1018,6 10 0 -
18.10.2019 07:00:00 12,8 7,7 3 1 9 5 N 1018,7 18 0 0,0
18.10.2019 06:00:00 12,1 7,1 5 3 8 5 NNO 1019,0 20 0 0,0
18.10.2019 05:00:00 10,6 8,1 1 1 6 3 ZW 1019,3 18 0 0,0
18.10.2019 04:00:00 9,9 7,6 4 2 6 4 O 1020,1 19 0 0,0
18.10.2019 03:00:00 9,7 7,0 3 2 8 5 ZO 1020,6 20 0 0,0
18.10.2019 02:00:00 10,4 7,3 3 2 5 3 OZO 1020,4 18 0 -
18.10.2019 01:00:00 11,4 8,1 4 2 11 6 NW 1020,4 15 0 0,0
18.10.2019 00:00:00 12,5 8,5 6 3 13 7 O 1020,0 19 0 0,0
17.10.2019 23:00:00 12,9 8,4 10 5 14 7 O 1019,9 19 0 0,0
17.10.2019 22:00:00 14,0 8,0 9 5 15 8 O 1019,3 19 0 0,0
17.10.2019 21:00:00 15,6 7,1 8 4 12 6 NO 1018,5 16 0 0,0
17.10.2019 20:00:00 17,3 7,8 8 5 - - N 1017,4 19 7 -
17.10.2019 19:00:00 19,6 8,3 12 6 23 13 N 1016,4 18 40 0,0
17.10.2019 18:00:00 20,7 8,7 14 7 26 14 N 1016,2 16 59 0,0
17.10.2019 17:00:00 20,8 8,1 19 10 31 17 NNW 1016,2 18 60 0,0
17.10.2019 16:00:00 20,4 8,7 19 10 33 18 N 1016,5 20 60 0,0
17.10.2019 15:00:00 19,4 7,1 19 11 32 17 N 1017,1 19 60 0,0
17.10.2019 14:00:00 18,5 5,9 18 10 32 17 N 1018,1 18 37 -
17.10.2019 13:00:00 17,4 5,9 20 11 34 19 N 1019,1 20 60 0,0
17.10.2019 12:00:00 15,6 5,1 14 8 23 12 N 1020,0 17 60 0,0
17.10.2019 11:00:00 12,7 3,6 14 8 21 12 N 1021,1 17 60 0,0
17.10.2019 10:00:00 9,5 2,9 6 4 12 6 O 1021,7 20 60 0,0
17.10.2019 09:00:00 4,8 0,6 5 3 13 7 O 1022,4 17 22 0,0
17.10.2019 08:00:00 3,6 0,0 10 5 14 8 O 1022,4 11 0 -
17.10.2019 07:00:00 3,8 -0,3 6 3 9 5 O 1021,6 18 0 0,0
17.10.2019 06:00:00 4,9 0,2 1 1 6 4 OZO 1020,9 19 0 0,0
17.10.2019 05:00:00 5,3 0,6 5 3 6 4 NW 1021,1 19 0 0,0
17.10.2019 04:00:00 6,2 0,6 4 2 9 5 OZO 1021,0 17 0 0,0
17.10.2019 03:00:00 7,8 0,6 3 2 18 10 ONO 1020,7 13 0 0,0
17.10.2019 02:00:00 7,1 0,4 8 4 10 5 NNO 1021,2 20 0 -
17.10.2019 01:00:00 8,7 1,1 2 1 4 2 ONO 1020,8 18 0 0,0
17.10.2019 00:00:00 9,7 1,5 4 2 8 4 ZW 1020,6 19 0 0,0
16.10.2019 23:00:00 9,7 0,2 3 2 8 5 OZO 1020,3 19 0 0,0
16.10.2019 22:00:00 12,0 1,3 6 3 11 6 O 1019,5 19 0 0,0
16.10.2019 21:00:00 13,6 0,9 9 5 13 7 ONO 1018,9 19 0 0,0
16.10.2019 20:00:00 15,4 0,4 10 6 14 8 NO 1017,5 18 0 -
16.10.2019 19:00:00 17,8 0,4 10 5 20 11 N 1016,9 18 37 0,0
16.10.2019 18:00:00 19,1 0,6 14 7 22 12 NNW 1016,7 20 60 0,0
16.10.2019 17:00:00 19,1 1,5 10 5 25 14 N 1016,8 20 60 0,0
16.10.2019 16:00:00 18,8 1,3 13 7 27 14 N 1017,5 16 60 0,0
16.10.2019 15:00:00 18,1 1,5 10 6 28 15 N 1018,3 15 60 0,0
16.10.2019 14:00:00 16,9 2,1 13 7 26 14 NNW 1019,5 20 60 -
16.10.2019 13:00:00 15,2 4,3 8 4 23 12 N 1020,9 20 60 0,0
16.10.2019 12:00:00 13,5 4,1 9 5 15 8 N 1022,1 20 60 0,0
16.10.2019 11:00:00 11,1 3,4 8 4 13 7 N 1022,9 20 60 0,0
16.10.2019 10:00:00 8,3 1,9 4 2 11 6 O 1023,3 12 60 0,0
16.10.2019 09:00:00 4,0 0,4 8 5 14 7 O 1024,3 9 24 0,0
16.10.2019 08:00:00 2,8 -0,5 7 4 11 6 O 1024,3 19 0 -
16.10.2019 07:00:00 3,8 0,0 5 3 7 4 O 1023,9 9 0 0,0
16.10.2019 06:00:00 4,1 0,2 4 2 13 7 W 1023,8 20 0 0,0
16.10.2019 05:00:00 4,0 0,2 11 6 13 7 O 1023,8 19 0 0,0
16.10.2019 04:00:00 4,6 0,2 5 3 6 3 O 1023,9 20 0 0,0
16.10.2019 03:00:00 4,9 0,2 5 3 9 5 O 1024,1 17 0 0,0
16.10.2019 02:00:00 5,2 -0,3 4 2 12 7 O 1024,0 20 0 -
16.10.2019 01:00:00 6,5 0,4 4 2 9 5 OZO 1023,7 20 0 0,0
16.10.2019 00:00:00 7,6 1,1 10 6 15 8 O 1023,7 18 0 0,0
15.10.2019 23:00:00 7,9 0,9 8 5 9 5 O 1023,5 20 0 0,0
15.10.2019 22:00:00 8,9 0,9 5 3 6 3 O 1022,7 20 0 0,0
15.10.2019 21:00:00 10,6 0,6 2 1 3 2 NO 1021,7 17 0 0,0
15.10.2019 20:00:00 12,6 1,1 3 2 17 9 N 1020,9 9 9 -
15.10.2019 19:00:00 15,2 -0,3 15 8 29 16 N 1019,8 20 47 0,0
15.10.2019 18:00:00 16,6 -0,7 19 10 31 17 NNO 1019,0 20 60 0,0
15.10.2019 17:00:00 16,9 0,0 16 9 33 18 N 1018,9 20 60 0,0
15.10.2019 16:00:00 16,8 -1,0 22 12 36 20 NNO 1018,9 20 60 0,0
15.10.2019 15:00:00 16,0 2,1 20 11 37 20 NNO 1019,7 19 60 0,0
15.10.2019 14:00:00 15,3 2,5 18 10 27 15 NNO 1020,4 20 60 -
15.10.2019 13:00:00 13,5 2,1 19 10 31 17 NNO 1021,5 14 59 0,0
15.10.2019 12:00:00 11,5 3,9 19 10 33 18 NNO 1022,3 20 60 0,0
15.10.2019 11:00:00 9,8 5,1 22 12 33 18 N 1022,5 20 58 0,0
15.10.2019 10:00:00 7,4 5,6 14 7 19 10 N 1023,3 16 60 0,0
15.10.2019 09:00:00 5,7 4,8 8 4 11 6 N 1022,9 16 25 0,0
15.10.2019 08:00:00 5,3 4,6 6 3 18 10 NNO 1022,3 17 0 -
15.10.2019 07:00:00 6,0 5,1 14 8 24 13 N 1021,4 18 0 0,0
15.10.2019 06:00:00 6,4 5,8 14 8 18 10 NNO 1021,1 17 0 0,2
15.10.2019 05:00:00 7,1 6,4 12 6 18 10 NNO 1020,7 19 0 0,0
15.10.2019 04:00:00 8,0 7,1 14 8 24 13 N 1020,1 20 0 0,0
15.10.2019 03:00:00 8,9 7,3 16 9 24 13 N 1019,9 20 0 0,0
15.10.2019 02:00:00 8,9 7,6 9 5 16 9 NNO 1019,5 20 0 -
15.10.2019 01:00:00 9,3 7,7 11 6 16 9 NNO 1019,0 20 0 0,0
15.10.2019 00:00:00 10,7 8,3 13 7 21 12 N 1018,3 20 0 0,0
14.10.2019 23:00:00 11,1 7,8 17 9 31 17 N 1017,9 18 0 0,0
14.10.2019 22:00:00 12,5 6,2 21 11 34 18 N 1016,9 20 0 0,0
14.10.2019 21:00:00 12,7 7,6 29 16 55 30 NNO 1016,1 20 0 0,0
14.10.2019 20:00:00 16,8 6,2 30 16 50 27 N 1013,1 15 0 -
14.10.2019 19:00:00 19,1 7,1 24 13 45 24 NNW 1011,6 20 1 0,0
14.10.2019 18:00:00 19,7 8,7 29 16 47 26 NNW 1011,1 19 10 0,0
14.10.2019 17:00:00 20,6 9,8 26 14 49 26 NNW 1010,4 17 20 0,0
14.10.2019 16:00:00 21,7 9,6 35 19 52 28 NNW 1010,2 18 38 0,0
14.10.2019 15:00:00 22,3 10,4 33 18 52 28 NW 1010,2 20 59 0,0
14.10.2019 14:00:00 21,5 10,9 27 15 - - NW 1011,2 20 16 -
14.10.2019 13:00:00 20,9 12,3 18 10 - - WNW 1012,2 14 37 0,0
14.10.2019 12:00:00 18,8 13,0 20 11 30 16 WNW 1013,5 16 20 0,0
14.10.2019 11:00:00 17,1 12,8 16 9 35 19 NW 1014,2 15 0 0,0
14.10.2019 10:00:00 16,6 12,1 21 11 44 24 NW 1013,7 20 0 0,8
14.10.2019 09:00:00 17,1 13,3 7 4 - - ZW 1012,4 9 0 0,0
14.10.2019 08:00:00 16,8 13,9 13 7 32 17 ZZW 1011,5 14 0 -
14.10.2019 07:00:00 16,7 14,3 17 9 39 21 ZZW 1011,5 13 0 0,0
14.10.2019 06:00:00 16,8 14,8 19 10 40 22 ZZW 1011,1 12 0 0,0
14.10.2019 05:00:00 16,5 15,2 22 12 43 23 ZZW 1011,3 10 0 0,0
14.10.2019 04:00:00 16,9 15,4 24 13 44 24 ZZW 1012,0 3,7 0 0,0
14.10.2019 03:00:00 16,9 15,3 22 12 44 24 ZZW 1012,4 12 0 0,0
14.10.2019 02:00:00 17,2 14,8 19 10 36 19 ZZW 1013,5 14 0 -
14.10.2019 01:00:00 17,6 14,5 18 10 32 17 ZZW 1014,0 14 0 0,0
14.10.2019 00:00:00 18,3 12,3 16 8 27 15 ZZW 1014,3 17 0 0,0
13.10.2019 23:00:00 18,5 9,3 8 5 - - ZZW 1014,4 16 0 0,0
13.10.2019 22:00:00 17,1 3,4 6 3 7 4 OZO 1014,7 17 0 0,0
13.10.2019 21:00:00 19,0 4,3 - - - - - 1014,2 4,6 0 0,0
13.10.2019 20:00:00 22,5 3,6 5 3 - - W 1013,0 12 12 -
13.10.2019 19:00:00 25,8 3,0 13 7 - - NNW 1011,9 17 50 0,0
13.10.2019 18:00:00 27,4 3,0 21 12 - - NW 1011,5 20 60 0,0
13.10.2019 17:00:00 28,2 1,7 22 12 38 20 NW 1011,3 18 60 0,0
13.10.2019 16:00:00 27,1 9,4 12 7 - - W 1011,7 14 60 0,0
13.10.2019 15:00:00 26,4 10,9 10 5 28 15 W 1012,4 15 60 0,0
13.10.2019 14:00:00 25,1 12,6 8 4 25 13 WNW 1013,7 19 60 -
13.10.2019 13:00:00 23,2 12,8 9 5 19 10 ZW 1015,0 13 60 0,0
13.10.2019 12:00:00 21,5 14,4 10 6 22 12 ZW 1016,0 16 60 0,0
13.10.2019 11:00:00 19,5 14,5 14 8 30 16 ZW 1016,2 18 60 0,0
13.10.2019 10:00:00 17,9 14,4 14 7 29 15 ZZW 1016,2 15 60 0,0
13.10.2019 09:00:00 16,1 14,2 13 7 23 13 ZZW 1016,3 9 17 0,0
13.10.2019 08:00:00 16,0 14,3 11 6 27 15 ZZW 1016,1 14 0 -
13.10.2019 07:00:00 16,3 14,5 11 6 - - Z 1015,9 13 0 0,0
13.10.2019 06:00:00 16,5 14,7 13 7 30 16 ZZW 1015,6 15 0 0,0
13.10.2019 05:00:00 16,7 14,9 16 8 26 14 ZZW 1015,3 15 0 0,0
13.10.2019 04:00:00 16,6 14,6 10 6 29 16 ZZW 1015,8 15 0 0,0
13.10.2019 03:00:00 16,9 14,7 16 8 31 17 ZZW 1015,9 14 0 0,0
13.10.2019 02:00:00 17,2 14,8 16 8 30 16 ZZW 1016,0 15 0 -
13.10.2019 01:00:00 17,7 15,2 14 7 36 19 ZZW 1016,2 15 0 0,0
13.10.2019 00:00:00 17,8 15,1 17 9 39 21 ZZW 1016,1 16 0 0,0
12.10.2019 23:00:00 17,8 14,9 13 7 29 16 Z 1016,4 14 0 0,0
12.10.2019 22:00:00 18,5 14,6 13 7 32 17 Z 1015,7 16 0 0,0
12.10.2019 21:00:00 19,5 14,3 18 10 35 19 ZZW 1014,8 17 0 0,0

tt = temperatuur
td = dauwpunt
ff = windsnelheid
fx = windstoten
dd = windrichting
ppp = luchtdruk
vv = zicht
sd = Zonneschijnduur
rr = neerslag

Weerstations in de omgeving